Tracking 27112 objects as of 27-Mar-2023
HD Live streaming from Space Station
objects crossing your sky now

SL-16 DEB

Track SL-16 DEB now!
10-day predictions


NORAD ID: 22426
Int'l Code: 1992-093DT
Perigee: 730.8 km
Apogee: 926.5 km
Inclination: 71.4 °
Period: 101.3 minutes
Semi major axis: 7199 km
RCS: 0.0572 m2 (small)
Launch date: December 25, 1992
Source: Commonwealth of Independent States (former USSR) (CIS)
Launch site: TYURATAM MISSILE AND SPACE COMPLEX (TTMTR)

Note: This is SATELLITE DEBRIS
Your satellite tracking list
Your tracking list is empty




NASA's NSSDC Master Catalog

Two Line Element Set (TLE):
1 22426U 92093DT  23085.87450859  .00002607  00000-0  11114-2 0  9998
2 22426  71.3521 240.5203 0135885 306.2220 177.0073 14.21127320555292
Source of the keplerian elements: AFSPC